• In Belarus
  • List of Countries
  • For 7 days
  • Water Temperature
  • Satellite Maps
  • Weather Map
  • Weather Widgets
  • user-avatar
    Login

    Hourly Weather Marrakesh

    Today, 18 March, Monday

    Time Temperature Precipitation Wind Pressure Humidity
    00:00 +19°C° 0 mm 1 mps 724 mmHg 56%
    01:00 +18°C° 0 mm 1 mps 724 mmHg 56%
    02:00 +18°C° 0 mm 1 mps 723 mmHg 57%
    03:00 +16°C° 0 mm 1 mps 723 mmHg 55%
    04:00 +16°C° 0 mm 1 mps 723 mmHg 54%
    05:00 +15°C° 0 mm 1 mps 723 mmHg 48%
    06:00 +18°C° 0 mm 1 mps 723 mmHg 41%
    07:00 +20°C° 0 mm 1 mps 723 mmHg 34%
    08:00 +22°C° 0 mm 1 mps 724 mmHg 27%
    09:00 +23°C° 0 mm 1 mps 724 mmHg 25%
    10:00 +25°C° 0 mm 2 mps 724 mmHg 23%
    11:00 +26°C° 0 mm 3 mps 724 mmHg 19%
    12:00 +27°C° 0 mm 3 mps 724 mmHg 19%
    13:00 +27°C° 0 mm 2 mps 724 mmHg 19%
    14:00 +27°C° 0 mm 2 mps 723 mmHg 19%
    15:00 +27°C° 0 mm 3 mps 723 mmHg 21%
    16:00 +26°C° 0 mm 3 mps 723 mmHg 24%
    17:00 +26°C° 0 mm 3 mps 723 mmHg 26%
    18:00 +24°C° 0 mm 3 mps 723 mmHg 36%
    19:00 +21°C° 0 mm 3 mps 724 mmHg 45%
    20:00 +19°C° 0 mm 3 mps 724 mmHg 55%
    21:00 +19°C° 0 mm 3 mps 724 mmHg 57%
    22:00 +18°C° 0 mm 2 mps 724 mmHg 59%
    23:00 +17°C° 0 mm 2 mps 724 mmHg 60%

    Tomorrow, 19 March, Tuesday

    Time Temperature Precipitation Wind Pressure Humidity
    00:00 +17°C° 0 mm 2 mps 723 mmHg 59%
    01:00 +17°C° 0 mm 2 mps 723 mmHg 58%
    02:00 +16°C° 0 mm 2 mps 723 mmHg 57%
    03:00 +16°C° 0 mm 2 mps 722 mmHg 56%
    04:00 +16°C° 0 mm 2 mps 722 mmHg 55%
    05:00 +15°C° 0 mm 2 mps 722 mmHg 53%
    06:00 +17°C° 0 mm 2 mps 722 mmHg 47%
    07:00 +19°C° 0 mm 2 mps 723 mmHg 40%
    08:00 +20°C° 0 mm 3 mps 723 mmHg 34%
    09:00 +23°C° 0 mm 2 mps 723 mmHg 29%
    10:00 +25°C° 0 mm 2 mps 723 mmHg 24%
    11:00 +26°C° 0 mm 2 mps 723 mmHg 18%
    12:00 +27°C° 0 mm 2 mps 723 mmHg 18%
    13:00 +28°C° 0 mm 3 mps 722 mmHg 17%
    14:00 +28°C° 0 mm 3 mps 722 mmHg 17%
    15:00 +27°C° 0 mm 3 mps 722 mmHg 19%
    16:00 +27°C° 0 mm 4 mps 722 mmHg 21%
    17:00 +26°C° 0 mm 4 mps 722 mmHg 23%
    18:00 +23°C° 0 mm 4 mps 722 mmHg 31%
    19:00 +21°C° 0 mm 4 mps 723 mmHg 38%
    20:00 +19°C° 0 mm 4 mps 723 mmHg 46%
    21:00 +19°C° 0 mm 3 mps 723 mmHg 48%
    22:00 +18°C° 0 mm 2 mps 723 mmHg 51%
    23:00 +17°C° 0 mm 2 mps 723 mmHg 53%

    Day after tomorrow, 20 March, Wednesday

    Time Temperature Precipitation Wind Pressure Humidity
    00:00 +18°C° 0 mm 1 mps 722 mmHg 53%
    01:00 +16°C° 0 mm 1 mps 722 mmHg 53%
    02:00 +15°C° 0 mm 1 mps 721 mmHg 53%
    03:00 +15°C° 0 mm 1 mps 721 mmHg 54%
    04:00 +15°C° 0 mm 1 mps 721 mmHg 54%
    05:00 +14°C° 0 mm 1 mps 720 mmHg 55%
    06:00 +16°C° 0 mm 1 mps 721 mmHg 49%
    07:00 +19°C° 0 mm 1 mps 721 mmHg 42%
    08:00 +20°C° 0 mm 1 mps 721 mmHg 36%
    09:00 +22°C° 0 mm 1 mps 721 mmHg 31%
    10:00 +23°C° 0 mm 2 mps 721 mmHg 26%
    11:00 +25°C° 0 mm 2 mps 721 mmHg 22%
    12:00 +26°C° 0 mm 2 mps 721 mmHg 20%
    13:00 +27°C° 0 mm 2 mps 720 mmHg 18%
    14:00 +27°C° 0 mm 2 mps 720 mmHg 17%
    15:00 +27°C° 0 mm 2 mps 720 mmHg 18%
    16:00 +26°C° 0 mm 2 mps 720 mmHg 19%
    17:00 +26°C° 0 mm 2 mps 720 mmHg 20%
    18:00 +24°C° 0 mm 2 mps 720 mmHg 26%
    19:00 +21°C° 0 mm 3 mps 720 mmHg 32%
    20:00 +19°C° 0 mm 3 mps 721 mmHg 39%
    21:00 +18°C° 0 mm 3 mps 721 mmHg 42%
    22:00 +17°C° 0 mm 2 mps 721 mmHg 46%
    23:00 +16°C° 0 mm 1 mps 720 mmHg 49%

    21 March, Thursday

    Time Temperature Precipitation Wind Pressure Humidity
    00:00 +16°C° 0 mm 1 mps 720 mmHg 50%
    01:00 +15°C° 0 mm 1 mps 720 mmHg 51%
    02:00 +15°C° 0 mm 1 mps 719 mmHg 52%
    03:00 +14°C° 0 mm 1 mps 719 mmHg 52%
    04:00 +14°C° 0 mm 1 mps 719 mmHg 51%
    05:00 +14°C° 0 mm 1 mps 719 mmHg 51%
    06:00 +15°C° 0 mm 1 mps 720 mmHg 45%
    07:00 +18°C° 0 mm 1 mps 720 mmHg 39%
    08:00 +19°C° 0 mm 2 mps 721 mmHg 32%
    09:00 +21°C° 0 mm 3 mps 721 mmHg 30%
    10:00 +22°C° 0 mm 3 mps 721 mmHg 27%
    11:00 +25°C° 0 mm 4 mps 721 mmHg 24%
    12:00 +25°C° 0 mm 5 mps 720 mmHg 22%
    13:00 +26°C° 0 mm 5 mps 720 mmHg 21%
    14:00 +26°C° 0 mm 6 mps 719 mmHg 20%
    15:00 +25°C° 0 mm 5 mps 719 mmHg 21%
    16:00 +25°C° 0 mm 5 mps 719 mmHg 22%
    17:00 +23°C° 0 mm 4 mps 719 mmHg 22%
    18:00 +21°C° 0 mm 4 mps 719 mmHg 30%
    19:00 +19°C° 0 mm 4 mps 720 mmHg 37%
    20:00 +17°C° 0 mm 4 mps 720 mmHg 45%
    21:00 +17°C° 0 mm 3 mps 720 mmHg 47%
    22:00 +16°C° 0 mm 3 mps 720 mmHg 49%
    23:00 +15°C° 0 mm 2 mps 720 mmHg 51%

    22 March, Friday

    Time Temperature Precipitation Wind Pressure Humidity
    00:00 +14°C° 0 mm 2 mps 720 mmHg 50%
    01:00 +14°C° 0 mm 2 mps 720 mmHg 50%
    02:00 +13°C° 0 mm 2 mps 720 mmHg 50%
    03:00 +13°C° 0 mm 2 mps 720 mmHg 51%
    04:00 +12°C° 0 mm 2 mps 720 mmHg 51%
    05:00 +12°C° 0 mm 2 mps 720 mmHg 52%
    06:00 +13°C° 0 mm 2 mps 720 mmHg 48%
    07:00 +15°C° 0 mm 2 mps 720 mmHg 45%
    08:00 +16°C° 0 mm 3 mps 721 mmHg 41%
    09:00 +18°C° 0 mm 3 mps 721 mmHg 36%
    10:00 +20°C° 0 mm 3 mps 721 mmHg 31%
    11:00 +22°C° 0 mm 3 mps 721 mmHg 26%
    12:00 +23°C° 0 mm 4 mps 720 mmHg 24%
    13:00 +25°C° 0 mm 4 mps 720 mmHg 22%
    14:00 +26°C° 0 mm 4 mps 719 mmHg 21%
    15:00 +25°C° 0 mm 4 mps 719 mmHg 22%
    16:00 +25°C° 0 mm 3 mps 719 mmHg 23%
    17:00 +24°C° 0 mm 3 mps 719 mmHg 24%
    18:00 +22°C° 0 mm 3 mps 720 mmHg 29%
    19:00 +20°C° 0 mm 3 mps 720 mmHg 35%
    20:00 +19°C° 0 mm 4 mps 720 mmHg 40%
    21:00 +18°C° 0 mm 3 mps 720 mmHg 42%
    22:00 +18°C° 0 mm 3 mps 720 mmHg 44%
    23:00 +17°C° 0 mm 2 mps 719 mmHg 46%

    23 March, Saturday

    Time Temperature Precipitation Wind Pressure Humidity
    00:00 +17°C° 0 mm 2 mps 719 mmHg 46%
    01:00 +17°C° 0 mm 2 mps 719 mmHg 46%
    02:00 +16°C° 0 mm 2 mps 718 mmHg 46%
    03:00 +16°C° 0 mm 2 mps 718 mmHg 45%
    04:00 +17°C° 0 mm 2 mps 718 mmHg 45%
    05:00 +17°C° 0 mm 2 mps 718 mmHg 44%
    06:00 +17°C° 0.1 mm 2 mps 718 mmHg 43%
    07:00 +19°C° 0.1 mm 1 mps 719 mmHg 41%
    08:00 +20°C° 0.1 mm 1 mps 719 mmHg 40%
    09:00 +19°C° 0.2 mm 2 mps 719 mmHg 42%
    10:00 +19°C° 0.2 mm 2 mps 719 mmHg 43%
    11:00 +20°C° 0.2 mm 2 mps 719 mmHg 45%
    12:00 +19°C° 0.6 mm 2 mps 719 mmHg 48%
    13:00 +19°C° 0.6 mm 2 mps 718 mmHg 51%
    14:00 +19°C° 0.6 mm 2 mps 718 mmHg 54%
    15:00 +18°C° 1.2 mm 2 mps 718 mmHg 58%
    16:00 +17°C° 1.2 mm 2 mps 717 mmHg 63%
    17:00 +17°C° 1.2 mm 3 mps 717 mmHg 67%
    18:00 +17°C° 0.4 mm 3 mps 718 mmHg 66%
    19:00 +15°C° 0.4 mm 4 mps 718 mmHg 64%
    20:00 +15°C° 0.4 mm 4 mps 718 mmHg 63%
    21:00 +15°C° 0 mm 4 mps 718 mmHg 59%
    22:00 +15°C° 0 mm 4 mps 718 mmHg 56%
    23:00 +16°C° 0 mm 3 mps 717 mmHg 52%
    Show more